Усть-Оленек

Россия / Республика Саха (Якутия)     72°59′10″N   119°49′06″E
темп.,
°C
ветер,
м/с
пор.,
м/с
влажн.,
%
обл.,
%
осадки,
мм/ч
давл.,
гПа
погр.,
м
27 февраля, сб
сб2700:00−34ююз448897 0.0 103158
03:00−32ююз348799 0.0 103076
06:00−31ююз338699 0.0 103145
09:00−30ююз2285100 0.0 103066
12:00−29ююз1282100 0.0 103081
15:00−29ююз1180100 0.0 102978
18:00−28ююз1183100 0.0 102926
21:00−29вюв0083100 0.0 102822
28 февраля, вс
вс2800:00−28зюз1194100 0.1 102851
03:00−28сз009798 0.1 102757
06:00−31ссз0110082 0.0 102719
09:00−32сз1110085 0.0 102719
12:00−31ссз1210070 0.0 102719
15:00−30ссз239979 0.0 102719
18:00−31ссв239994 0.0 102719
21:00−31св239997 0.0 102719
1 марта, пн
пн100:00−32св2299100 0.0 102719
03:00−33св2310098 0.0 102719
06:00−34св2210089 0.0 102719
09:00−34св3310084 0.0 102719
12:00−33св349976 0.0 102758
15:00−33св359981 0.0 102785
18:00−34всв3410081 0.0 102733
21:00−35всв3410073 0.0 102734
2 марта, вт
вт200:00−35всв339983 0.0 102724
03:00−36в2210082 0.0 102720
06:00−37вюв119989 0.0 102819
09:00−37юв0110075 0.0 102819
12:00−36ю009761 0.0 102819
15:00−35ююз019550 0.0 102919
18:00−37юз01986 0.0 103019
21:00−37ююв00986 0.0 103019
3 марта, ср
ср300:00−37ююв119917 0.0 103019
03:00−37сз0010027 0.0 103019
06:00−37св1110047 0.0 103119
09:00−36всв2210051 0.0 103119
12:00−34всв2210067 0.0 103034
15:00−33св239973 0.0 103031
18:00−34св3410084 0.0 103024
21:00−33св3310087 0.0 102919